Retour au catalogue

STARLINK-32043

ActifCommunicationsVLEO
NORAD 60135·PAYLOAD·🇺🇸 United States

Lancé Jun 27, 2024 depuis Cape Canaveral Space Force Station

Loading…

Prochains Passages (prochaines 24 heures)

TLE

FraisSource: CelesTrak SupGP

Époque: Sep 15, 2026, 03:21 UTC

1 60135C 24120A   26258.14006944  .00029836  00000+0  88163-3 0  2589
2 60135  53.1570 156.8649 0001146  92.1020 330.9738 15.34371909    19

Suivez STARLINK-32043 en temps réel avec AllMySat

Download on the App Store